FENGYUN 2H

Last updated on Thu Dec 18 2025 00:02:23 GMT+0000 (Coordinated Universal Time)

1 43491U 18050A 25351.64230949 -.00000107 00000+0 00000+0 0 9995 2 43491 2.5632 81.2773 0002456 166.1771 149.6480 1.00271338 27618
UTC large
Height (km)
Speed (km/s)
/
Latitude / Longitude
Inclination (degrees)
Orbital Period (minutes)
Azimuth
Elevation
Range (km)
Doppler Factor

Next 0 passes for location: London (51.5072 / 0.1276)

Sorry there are no passes over London.